Location: Campestrin
(46.4667°N, 11.7167°E)
Time: 10:11:41
(UTC+00:00)

Cosmos 909 Rocket - Pass Details

Date: 18 April 2021
Orbit: 989 x 2090 km, 65.9° (Epoch: 06 May)

Event Time Altitude Azimuth Distance (km) Brightness Sun altitude
Rises 19:04:48 0° 193° (SSW) 3,831 6.9 -10.3°
Reaches altitude 10° 19:07:33 10° 187° (S) 2,810 6.2 -10.7°
Maximum altitude 19:13:35 47° 115° (ESE) 1,291 4.2 -11.6°
Drops below altitude 10° 19:19:38 10° 44° (NE) 2,814 6.3 -12.5°
Sets 19:22:23 0° 39° (NE) 3,837 7.0 -12.9°
